Regional Weather Roundup
Issued by NWS Cleveland, OH

Home | Current Version | Previous Version | Text Only | Print | Product List | Glossary Off
Versions: 1 2 3 4 5 6 7 8 9 10 11 12 13 14 15 16 17 18 19 20 21 22 23 24 25 26 27 28 29 30 31 32 33 34 35 36 37 38 39 40 41 42 43 44 45 46 47 48 49 50

000
ASUS41 KCLE 240010
RWRCLE
OHIO REGIONAL WEATHER ROUNDUP
NATIONAL WEATHER SERVICE WILMINGTON, OH
700 PM EST MON JAN 23 2017

NOTE: "FAIR" INDICATES FEW OR NO CLOUDS BELOW 12,000 FEET WITH NO
SIGNIFICANT WEATHER AND/OR OBSTRUCTIONS TO VISIBILITY.

OHZ001>008-015>018-024>027-034-035-043-044-240100-
   NORTHWEST OHIO

CITY           SKY/WX    TMP DP  RH WIND       PRES   REMARKS
DEFIANCE       LGT RAIN  42  41  96 N5        29.68S
FINDLAY        CLOUDY    40  37  89 N13       29.65R FOG
TOLEDO EXPRESS CLOUDY    43  43 100 N6        29.68R FOG
TOLEDO EXEC    LGT RAIN  42  41  96 NE6       29.69R FOG
LIMA           LGT RAIN  39  39 100 N14       29.64R FOG
$$

OHZ009>014-019>023-028>033-038-089-240100-
   NORTHEAST OHIO

CITY           SKY/WX    TMP DP  RH WIND       PRES   REMARKS
CLE-HOPKINS    DRIZZLE   42  38  85 N9        29.65R FOG
CLE-LAKEFRONT  CLOUDY    40  38  93 NE10      29.62R
CUY CO. ARPT   CLOUDY    43  41  93 NE13      29.63R
LORAIN-ELYRIA  CLOUDY    38  36  92 NE9       29.64R FOG
ASHTABULA      CLOUDY    40  39  97 NE6       29.64S
AKRON-CANTON   CLOUDY    43  39  86 SE8       29.60R
WOOSTER        CLOUDY    43  39  86 E8        29.61R
MANSFIELD      CLOUDY    42  42 100 N8        29.61R FOG
YOUNGSTOWN     LGT RAIN  43  41  93 E8        29.61R
$$

OHZ042-051>053-060>062-070>072-077>081-240100-
  SOUTHWEST OHIO

CITY           SKY/WX    TMP DP  RH WIND       PRES   REMARKS
CINC-COVINGTON DRIZZLE   46  45  96 NW12      29.62R FOG
CINC-LUNKEN    LGT RAIN  48  45  89 N12G20    29.63R
HAMILTON       LGT RAIN  47  45  93 NW8       29.64R
DAYTON         CLOUDY    42  41  96 N16       29.62S FOG
WRIGHT-PAT AFB CLOUDY    43  43 100 N10       29.61R FOG
DAYTON GENERAL LGT RAIN  43  42  97 N9        29.60S FOG
WILMINGTON     LGT RAIN  45  44  97 N13       29.59R FOG
$$

OHZ036-037-039>041-045>050-054>059-063>069-073>076-082>088-240100-
  CENTRAL AND SOUTHEAST OHIO

CITY           SKY/WX    TMP DP  RH WIND       PRES   REMARKS
COLUMBUS       CLOUDY    46  42  86 NE12      29.58R FOG
OSU AIRPORT    LGT RAIN  46  45  96 NE7G17    29.59R FOG
BOLTON FIELD   DRIZZLE   46  45  93 N7        29.59R
RICKENBACK AFB LGT RAIN  44  44 100 E8        29.58R
NEWARK         CLOUDY    44  41  89 E5        29.58R
MARION         LGT RAIN  40  38  93 N12       29.62R FOG
LANCASTER      CLOUDY    45  43  93 NE7       29.58R FOG
ZANESVILLE     CLOUDY    43  39  86 NE5       29.59R
NEW PHILLY     CLOUDY    41  38  89 E8        29.61R
$$



USA.gov is the U.S. government's official web portal to all federal, state and local government web resources and services.